| time (UTC) | temp F | wind direction | speed MPH | gust MPH | rain 1hr in | rain 24hr in | rain mn in | humidity % | barometer mb |
| 20260510081556 | 69 | 45 | 0.0 | 2.0 | 0.03 | 0.23 | 0.03 | 97 | 1014.1 |
| 20260510080003 | 69 | 44 | 0.0 | 1.0 | 0.03 | 0.23 | 0.03 | 97 | 1014.8 |
| 20260510074537 | 69 | 44 | 0.0 | 2.0 | 0.03 | 0.23 | 0.03 | 97 | 1014.3 |
| 20260510073011 | 69 | 47 | 0.0 | 2.0 | 0.02 | 0.22 | 0.02 | 97 | 1013.9 |
| 20260510071543 | 69 | 3 | 0.0 | 2.0 | 0.00 | 0.20 | 0.00 | 97 | 1013.1 |
| 20260510070014 | 69 | 288 | 0.0 | 0.0 | 0.00 | 0.20 | 0.00 | 97 | 1014.7 |
| 20260510064551 | 69 | 288 | 0.0 | 0.0 | 0.00 | 0.20 | 0.00 | 97 | 1014.2 |
| 20260510063019 | 68 | 288 | 0.0 | 0.0 | 0.00 | 0.20 | 0.00 | 97 | 1014.3 |
| 20260510061555 | 68 | 288 | 0.0 | 0.0 | 0.00 | 0.20 | 0.00 | 97 | 1014.4 |
| 20260510060032 | 68 | 288 | 0.0 | 0.0 | 0.00 | 0.20 | 0.00 | 97 | 1014.7 |
| 20260510054600 | 68 | 288 | 0.0 | 0.0 | 0.00 | 0.20 | 0.00 | 97 | 1014.7 |
| 20260510054503 | 68 | 288 | 0.0 | 0.0 | 0.00 | 0.20 | 0.00 | 97 | 1014.8 |
| 20260510053039 | 68 | 288 | 0.0 | 0.0 | 0.00 | 0.20 | 0.00 | 97 | 1015.0 |
| 20260510051512 | 69 | 288 | 0.0 | 0.0 | 0.00 | 0.20 | 0.00 | 97 | 1015.2 |
| 20260510050042 | 69 | 288 | 0.0 | 0.0 | 0.00 | 0.20 | 0.00 | 97 | 1015.4 |
| 20260510044552 | 69 | 288 | 0.0 | 0.0 | 0.00 | 0.20 | 0.00 | 97 | 1015.4 |
| 20260510043010 | 69 | 288 | 0.0 | 0.0 | 0.01 | 0.20 | 0.00 | 97 | 1015.5 |
| 20260510041546 | 69 | 288 | 0.0 | 0.0 | 0.01 | 0.20 | 0.00 | 96 | 1015.3 |
| 20260510040021 | 69 | 288 | 0.0 | 0.0 | 0.01 | 0.22 | 0.20 | 96 | 1015.4 |
| 20260510034552 | 69 | 288 | 0.0 | 0.0 | 0.01 | 0.22 | 0.20 | 96 | 1015.4 |
| 20260510033031 | 69 | 290 | 0.0 | 1.0 | 0.00 | 0.21 | 0.19 | 96 | 1015.5 |
| 20260510031600 | 69 | 290 | 0.0 | 0.0 | 0.00 | 0.21 | 0.19 | 96 | 1015.0 |
| 20260510031503 | 69 | 290 | 0.0 | 0.0 | 0.00 | 0.21 | 0.19 | 96 | 1015.0 |
| 20260510030025 | 69 | 290 | 0.0 | 2.0 | 0.00 | 0.22 | 0.19 | 96 | 1015.1 |
| 20260510024604 | 69 | 291 | 0.0 | 0.0 | 0.00 | 0.22 | 0.19 | 96 | 1014.8 |
| 20260510023034 | 69 | 291 | 0.0 | 2.0 | 0.00 | 0.22 | 0.19 | 96 | 1014.9 |
| 20260510021555 | 69 | 288 | 1.0 | 4.0 | 0.00 | 0.22 | 0.19 | 96 | 1014.7 |
| 20260510020024 | 69 | 286 | 0.0 | 1.0 | 0.00 | 0.25 | 0.19 | 96 | 1014.7 |
| 20260510014504 | 69 | 286 | 0.0 | 1.0 | 0.00 | 0.25 | 0.19 | 96 | 1014.6 |
| 20260510013046 | 69 | 286 | 1.0 | 4.0 | 0.00 | 0.25 | 0.19 | 96 | 1014.3 |
| 20260510011521 | 70 | 257 | 0.0 | 4.0 | 0.01 | 0.25 | 0.19 | 96 | 1014.2 |
| 20260510010055 | 70 | 215 | 0.0 | 2.0 | 0.01 | 0.28 | 0.19 | 96 | 1013.9 |
| 20260510004535 | 70 | 207 | 0.0 | 1.0 | 0.01 | 0.28 | 0.19 | 96 | 1013.9 |
| 20260510003010 | 70 | 160 | 0.0 | 2.0 | 0.02 | 0.28 | 0.19 | 96 | 1013.8 |
| 20260510001537 | 70 | 182 | 0.0 | 5.0 | 0.02 | 0.27 | 0.18 | 96 | 1014.1 |
| 20260510000056 | 70 | 96 | 0.0 | 2.0 | 0.03 | 0.27 | 0.18 | 96 | 1014.1 |
| 20260509234542 | 70 | 60 | 0.0 | 0.0 | 0.03 | 0.27 | 0.18 | 95 | 1014.1 |
| 20260509233057 | 70 | 215 | 0.0 | 2.0 | 0.02 | 0.26 | 0.17 | 95 | 1013.9 |
| 20260509231529 | 70 | 162 | 0.0 | 4.0 | 0.01 | 0.25 | 0.16 | 95 | 1014.3 |
| 20260509230004 | 71 | 144 | 0.0 | 0.0 | 0.01 | 0.24 | 0.15 | 95 | 1014.2 |
| 20260509224554 | 70 | 143 | 0.0 | 1.0 | 0.02 | 0.24 | 0.15 | 95 | 1014.1 |
| 20260509223022 | 70 | 159 | 2.0 | 4.0 | 0.02 | 0.24 | 0.15 | 95 | 1013.7 |
| 20260509221600 | 70 | 11 | 0.0 | 0.0 | 0.02 | 0.24 | 0.15 | 95 | 1013.5 |
| 20260509221502 | 70 | 11 | 0.0 | 0.0 | 0.02 | 0.24 | 0.15 | 95 | 1013.6 |
| 20260509220034 | 70 | 11 | 0.0 | 1.0 | 0.02 | 0.23 | 0.14 | 95 | 1013.8 |
| 20260509214509 | 70 | 358 | 0.0 | 3.0 | 0.02 | 0.22 | 0.13 | 95 | 1013.8 |
| 20260509213047 | 70 | 321 | 0.0 | 0.0 | 0.04 | 0.22 | 0.13 | 95 | 1013.7 |
| 20260509211528 | 70 | 320 | 0.0 | 0.0 | 0.09 | 0.22 | 0.13 | 95 | 1013.8 |
| 20260509210104 | 70 | 319 | 0.0 | 4.0 | 0.11 | 0.21 | 0.12 | 95 | 1014.0 |
| 20260509204540 | 70 | 317 | 3.0 | 8.0 | 0.11 | 0.20 | 0.11 | 94 | 1014.2 |
| 20260509203012 | 70 | 315 | 5.0 | 7.0 | 0.08 | 0.17 | 0.08 | 93 | 1014.5 |
| 20260509201543 | 70 | 316 | 4.0 | 8.0 | 0.04 | 0.13 | 0.04 | 93 | 1014.5 |
| 20260509200014 | 71 | 314 | 5.0 | 10.0 | 0.01 | 0.10 | 0.01 | 93 | 1014.4 |
| 20260509194538 | 71 | 315 | 5.0 | 12.0 | 0.00 | 0.09 | 0.00 | 93 | 1014.2 |
| 20260509193055 | 72 | 325 | 7.0 | 12.0 | 0.00 | 0.09 | 0.00 | 92 | 1014.2 |
| 20260509191515 | 72 | 319 | 8.0 | 15.0 | 0.00 | 0.09 | 0.00 | 89 | 1014.1 |
| 20260509190048 | 73 | 323 | 9.0 | 14.0 | 0.00 | 0.09 | 0.00 | 89 | 1013.9 |
| 20260509184524 | 76 | 310 | 11.0 | 15.0 | 0.00 | 0.09 | 0.00 | 84 | 1014.0 |
| 20260509183048 | 80 | 329 | 3.0 | 7.0 | 0.00 | 0.09 | 0.00 | 74 | 1013.6 |
| 20260509181528 | 81 | 163 | 3.0 | 9.0 | 0.00 | 0.09 | 0.00 | 73 | 1013.6 |
| 20260509180114 | 82 | 314 | 0.0 | 4.0 | 0.00 | 0.09 | 0.00 | 74 | 1013.7 |
| 20260509174531 | 82 | 151 | 0.0 | 5.0 | 0.00 | 0.09 | 0.00 | 72 | 1013.7 |
| 20260509173106 | 82 | 178 | 1.0 | 6.0 | 0.00 | 0.09 | 0.00 | 71 | 1013.9 |
| 20260509171534 | 83 | 190 | 1.0 | 6.0 | 0.00 | 0.09 | 0.00 | 69 | 1014.0 |
| 20260509170004 | 82 | 184 | 1.0 | 7.0 | 0.00 | 0.09 | 0.00 | 72 | 1014.1 |
| 20260509164528 | 82 | 171 | 1.0 | 4.0 | 0.00 | 0.09 | 0.00 | 72 | 1014.0 |
| 20260509163052 | 80 | 190 | 2.0 | 7.0 | 0.00 | 0.09 | 0.00 | 75 | 1014.2 |
| 20260509161521 | 80 | 151 | 2.0 | 6.0 | 0.00 | 0.09 | 0.00 | 74 | 1014.2 |
| 20260509160052 | 79 | 147 | 2.0 | 6.0 | 0.00 | 0.09 | 0.00 | 75 | 1014.2 |
| 20260509154515 | 78 | 34 | 1.0 | 5.0 | 0.00 | 0.09 | 0.00 | 78 | 1014.1 |
| 20260509153032 | 76 | 336 | 2.0 | 4.0 | 0.00 | 0.09 | 0.00 | 80 | 1014.5 |
| 20260509151607 | 75 | 328 | 0.0 | 4.0 | 0.00 | 0.09 | 0.00 | 82 | 1014.6 |
| 20260509150026 | 74 | 329 | 0.0 | 4.0 | 0.00 | 0.09 | 0.00 | 83 | 1014.9 |
| 20260509144551 | 73 | 337 | 1.0 | 4.0 | 0.00 | 0.09 | 0.00 | 84 | 1015.2 |
| 20260509143021 | 73 | 317 | 2.0 | 7.0 | 0.00 | 0.09 | 0.00 | 85 | 1015.1 |
| 20260509141555 | 73 | 329 | 2.0 | 5.0 | 0.00 | 0.09 | 0.00 | 83 | 1014.8 |
| 20260509140021 | 73 | 288 | 1.0 | 5.0 | 0.00 | 0.09 | 0.00 | 86 | 1014.8 |
| 20260509134551 | 72 | 321 | 0.0 | 5.0 | 0.00 | 0.09 | 0.00 | 86 | 1014.6 |
| 20260509133025 | 72 | 340 | 1.0 | 4.0 | 0.00 | 0.09 | 0.00 | 87 | 1014.5 |
| 20260509131558 | 71 | 346 | 1.0 | 5.0 | 0.00 | 0.09 | 0.00 | 88 | 1014.4 |
| 20260509130024 | 71 | 3 | 0.0 | 2.0 | 0.00 | 0.09 | 0.00 | 90 | 1014.0 |
| 20260509124559 | 71 | 3 | 0.0 | 2.0 | 0.00 | 0.09 | 0.00 | 93 | 1014.0 |
| 20260509123033 | 70 | 3 | 0.0 | 5.0 | 0.00 | 0.09 | 0.00 | 94 | 1014.0 |
| 20260509121550 | 70 | 53 | 0.0 | 2.0 | 0.00 | 0.09 | 0.00 | 94 | 1014.0 |
| 20260509120017 | 69 | 56 | 1.0 | 4.0 | 0.00 | 0.09 | 0.00 | 95 | 1013.9 |
| 20260509114523 | 69 | 329 | 2.0 | 5.0 | 0.00 | 0.09 | 0.00 | 95 | 1014.0 |
| 20260509113055 | 68 | 331 | 0.0 | 1.0 | 0.00 | 0.09 | 0.00 | 95 | 1013.7 |
| 20260509111523 | 68 | 331 | 0.0 | 4.0 | 0.00 | 0.09 | 0.00 | 94 | 1013.7 |
| 20260509110055 | 68 | 322 | 2.0 | 5.0 | 0.00 | 0.09 | 0.00 | 94 | 1013.6 |
| 20260509104525 | 67 | 331 | 0.0 | 2.0 | 0.00 | 0.09 | 0.00 | 94 | 1012.9 |
| 20260509103111 | 68 | 332 | 0.0 | 2.0 | 0.00 | 0.09 | 0.00 | 94 | 1012.7 |
| 20260509101540 | 68 | 321 | 1.0 | 6.0 | 0.00 | 0.09 | 0.00 | 93 | 1013.0 |
| 20260509100053 | 68 | 337 | 3.0 | 7.0 | 0.00 | 0.09 | 0.00 | 93 | 1012.8 |
| 20260509094536 | 69 | 342 | 6.0 | 10.0 | 0.00 | 0.09 | 0.00 | 94 | 1012.9 |
| 20260509093048 | 68 | 337 | 4.0 | 7.0 | 0.00 | 0.09 | 0.00 | 94 | 1012.8 |
| 20260509091504 | 68 | 135 | 5.0 | 9.0 | 0.00 | 0.09 | 0.00 | 94 | 1011.5 |
| 20260509090050 | 67 | 171 | 1.0 | 7.0 | 0.00 | 0.09 | 0.00 | 94 | 1011.9 |
| 20260509084519 | 67 | 134 | 5.0 | 9.0 | 0.00 | 0.09 | 0.00 | 95 | 1011.7 |
| 20260509083052 | 67 | 161 | 5.0 | 13.0 | 0.00 | 0.09 | 0.00 | 95 | 1011.7 |